Location: Unspecified
(41.1637°N, 24.2901°E)
Time: 05:47:54
(UTC+01:00)

ISS - Pass Details

Date: 08 December 2019
Orbit: 411 x 421 km, 51.6° (Epoch: 15 December)

Event Time Altitude Azimuth Distance (km) Brightness Sun altitude
Rises 18:27:21 0° 298° (WNW) 2,361 0.9 -28.1°
Reaches altitude 10° 18:29:35 10° 287° (WNW) 1,496 -0.2 -28.5°
Enters shadow 18:30:48 18° 274° (W) 1,088 -0.9 -28.7°
